Location: Bad Salzschlirf
(50.3750°N, 9.3000°E)
Time: 08:44:36
(UTC+01:00)

ISS - Pass Details

Date: 10 December 2018
Orbit: 401 x 408 km, 51.6° (Epoch: 12 December)

Event Time Altitude Azimuth Distance (km) Brightness Sun altitude
Rises 19:03:57 0° 282° (WNW) 2,318 1.2 -25.0°
Reaches altitude 10° 19:06:38 10° 258° (WSW) 1,453 0.0 -25.5°
Maximum altitude 19:08:36 15° 221° (SW) 1,183 -1.0 -25.8°
Enters shadow 19:09:01 15° 211° (SSW) 1,196 -1.1 -25.8°
